Find Starlink 32369

NORAD ID: 60917 Int'l Des: 2024-154 Owner: SPXS Country: US Constellation: starlink operational
LEOCIRCULAR

实时位置

正在加载3D地球...

关于 Starlink 32369

正在加载描述...

即将过境

Passes for default location (London). Set your location on the main map for personalized predictions.

高度历史

Loading altitude history...

两行轨道根数

1 60917U 24154Q 26125.68216544 .00004684 00000-0 17017-3 0 9992
2 60917 53.1625 18.9148 0001075 98.9600 261.1523 15.30199486 95069
Epoch: May 5, 2026 • Age: 10 hours

当前状态

高度 477.4 km
速度 7.63 km/s
星下点 35.99°N, 95.07°W
发射日期 Aug 31, 2024
运行时间 1.6 years
类型 internet

技术详情

分类 Payload
质量 730.00 kg
干质量 700.00 kg
总质量 730.00 kg
长度 0.30 m
直径 4.10 m
跨度 29.00 m
形状 Box + pan
制造商 SPXS
平台类型 Starlink V2M
阶段状态 In Orbit
所有者/国家 SPXS/US

Most Searched